Independence, KS

9:24 AM CDT on October 22, 2017 (GMT -0500)
Independence Municipal

Weather History for KIDP - January, 2013

Change the Weather History Date:

Wednesday, January 30, 2013

  Actual Average (KCFV) Record (KCFV)
Temperature  
Mean Temperature 30 °F -  
Max Temperature 37 °F 44 °F 70 °F (2017)
Min Temperature 24 °F 24 °F 14 °F (2004)
Degree Days  
Heating Degree Days 34    
Moisture  
Dew Point 25 °F    
Average Humidity 79    
Maximum Humidity 93    
Minimum Humidity 64    
Precipitation  
Precipitation 0.00 in - - ()
Sea Level Pressure  
Sea Level Pressure 29.86 in    
Wind  
Wind Speed 14 mph (NW)    
Max Wind Speed 31 mph    
Max Gust Speed 38 mph    
Visibility 10 miles    
Events      
Averages and records for this station are not official NWS values.
T = Trace of Precipitation, MM = Missing Value Source: NWS Daily Summary

Daily Weather History Graph

Daily Weather History Graph

Search for Another Location

Airport or City:

Trip Planner

Search our weather history database for the weather conditions in past years. The results will help you decide how hot, cold, wet, or windy it might be!

Date:

Astronomy

Jan. 30, 2013 Rise Set
Actual Time 7:27 AM CST 5:46 PM CST
Civil Twilight 6:59 AM CST 6:13 PM CST
Nautical Twilight 6:28 AM CST 6:44 PM CST
Astronomical Twilight 5:57 AM CST 7:15 PM CST
Moon 9:38 PM CST (1/30) 9:01 AM CST (1/30)
Length of Visible Light 11h 13m
Length of Day
10h 18m
Waning Gibbous, 87% of the Moon is Illuminated
Jan 30
Waning Gibbous
Feb 3
Last Quarter
Feb 10
New
Feb 17
First Quarter
Feb 25
Full

Hourly Weather History & Observations

Time (CST) Temp. Windchill Dew Point Humidity Pressure Visibility Wind Dir Wind Speed Gust Speed Precip Events Conditions
12:15 AM 37.4 °F 30.3 °F 35.6 °F 93% 29.56 in 5.0 mi NW 10.4 mph - N/A   Overcast
12:35 AM 37.4 °F 30.8 °F 35.6 °F 93% 29.58 in 5.0 mi WNW 9.2 mph - N/A   Overcast
12:55 AM 37.4 °F 29.3 °F 33.8 °F 87% 29.59 in 5.0 mi WNW 12.7 mph - N/A   Overcast
1:15 AM 37.4 °F 29.8 °F 33.8 °F 87% 29.60 in 5.0 mi WNW 11.5 mph - N/A   Overcast
1:35 AM 35.6 °F 28.0 °F 33.8 °F 93% 29.60 in 5.0 mi WNW 10.4 mph - N/A   Overcast
1:55 AM 35.6 °F 28.6 °F 33.8 °F 93% 29.60 in 7.0 mi WNW 9.2 mph - N/A   Overcast
2:15 AM 35.6 °F 29.2 °F 33.8 °F 93% 29.60 in 7.0 mi WNW 8.1 mph - N/A   Overcast
2:35 AM 35.6 °F 26.2 °F 33.8 °F 93% 29.60 in 7.0 mi WNW 15.0 mph 19.6 mph N/A   Overcast
2:55 AM 35.6 °F 26.2 °F 32.0 °F 87% 29.60 in 10.0 mi WNW 15.0 mph 19.6 mph N/A   Overcast
3:15 AM 35.6 °F 25.5 °F 32.0 °F 87% 29.61 in 10.0 mi NW 17.3 mph 21.9 mph N/A   Overcast
3:35 AM 35.6 °F 27.1 °F 32.0 °F 87% 29.62 in 10.0 mi WNW 12.7 mph - N/A   Overcast
3:55 AM 35.6 °F 27.5 °F 32.0 °F 87% 29.63 in 10.0 mi WNW 11.5 mph - N/A   Overcast
4:15 AM 35.6 °F 27.5 °F 32.0 °F 87% 29.62 in 10.0 mi NW 11.5 mph - N/A   Overcast
4:35 AM 35.6 °F 25.5 °F 32.0 °F 87% 29.63 in 10.0 mi NW 17.3 mph 24.2 mph N/A   Overcast
4:55 AM 33.8 °F 21.9 °F 32.0 °F 93% 29.63 in 10.0 mi NW 21.9 mph 29.9 mph N/A   Overcast
5:15 AM 33.8 °F 21.9 °F 32.0 °F 93% 29.64 in 10.0 mi NNW 21.9 mph 25.3 mph N/A   Overcast
5:35 AM 33.8 °F 21.9 °F 32.0 °F 93% 29.66 in 10.0 mi NW 21.9 mph 27.6 mph N/A   Overcast
5:55 AM 33.8 °F 22.5 °F 30.2 °F 87% 29.67 in 10.0 mi NW 19.6 mph 28.8 mph N/A   Overcast
6:15 AM 33.8 °F 22.5 °F 30.2 °F 87% 29.69 in 10.0 mi NW 19.6 mph 29.9 mph N/A   Overcast
6:35 AM 33.8 °F 21.9 °F 30.2 °F 87% 29.70 in 10.0 mi NW 21.9 mph 33.4 mph N/A   Overcast
6:55 AM 33.8 °F 22.5 °F 30.2 °F 87% 29.72 in 10.0 mi NW 19.6 mph 31.1 mph N/A   Overcast
7:15 AM 33.8 °F 22.5 °F 30.2 °F 87% 29.73 in 10.0 mi NW 19.6 mph 31.1 mph N/A   Overcast
7:35 AM 32.0 °F 19.2 °F 28.4 °F 87% 29.76 in 10.0 mi NNW 23.0 mph 31.1 mph N/A   Overcast
7:55 AM 32.0 °F 20.1 °F 28.4 °F 87% 29.78 in 10.0 mi NNW 19.6 mph 25.3 mph N/A   Overcast
8:15 AM 32.0 °F 17.9 °F 26.6 °F 80% 29.81 in 10.0 mi NNW 28.8 mph 36.8 mph N/A   Overcast
8:35 AM 32.0 °F 17.4 °F 26.6 °F 80% 29.83 in 10.0 mi NNW 31.1 mph 38.0 mph N/A   Overcast
8:55 AM 32.0 °F 20.1 °F 26.6 °F 80% 29.84 in 10.0 mi NNW 19.6 mph - N/A   Overcast
9:15 AM 32.0 °F 17.6 °F 26.6 °F 80% 29.84 in 10.0 mi NNW 29.9 mph 35.7 mph N/A   Overcast
9:35 AM 30.2 °F 16.5 °F 24.8 °F 80% 29.86 in 10.0 mi NNW 24.2 mph 31.1 mph N/A   Mostly Cloudy
9:55 AM 30.2 °F 16.5 °F 23.0 °F 75% 29.88 in 10.0 mi NW 24.2 mph 31.1 mph N/A   Overcast
10:15 AM 30.2 °F 18.9 °F 23.0 °F 75% 29.90 in 10.0 mi NNW 16.1 mph 34.5 mph N/A   Mostly Cloudy
10:35 AM 30.2 °F 17.4 °F 23.0 °F 75% 29.90 in 10.0 mi NW 20.7 mph 32.2 mph N/A   Overcast
10:55 AM 30.2 °F 16.5 °F 23.0 °F 75% 29.91 in 10.0 mi NW 24.2 mph 33.4 mph N/A   Overcast
11:15 AM 30.2 °F 17.8 °F 23.0 °F 75% 29.92 in 10.0 mi NW 19.6 mph 28.8 mph N/A   Overcast
11:35 AM 28.4 °F 14.7 °F 21.2 °F 74% 29.92 in 10.0 mi NW 21.9 mph 29.9 mph N/A   Overcast
11:55 AM 28.4 °F 14.7 °F 23.0 °F 80% 29.93 in 10.0 mi NW 21.9 mph 27.6 mph N/A   Overcast
12:15 PM 30.2 °F 17.1 °F 21.2 °F 69% 29.93 in 10.0 mi NW 21.9 mph 28.8 mph N/A   Overcast
12:35 PM 30.2 °F 17.1 °F 21.2 °F 69% 29.93 in 10.0 mi NW 21.9 mph 27.6 mph N/A   Overcast
12:55 PM 32.0 °F 18.6 °F 21.2 °F 64% 29.92 in 10.0 mi WNW 25.3 mph 31.1 mph N/A   Overcast
1:15 PM 32.0 °F 19.5 °F 21.2 °F 64% 29.92 in 10.0 mi NW 21.9 mph 26.5 mph N/A   Mostly Cloudy
1:35 PM 30.2 °F 17.4 °F 21.2 °F 69% 29.93 in 10.0 mi NW 20.7 mph 27.6 mph N/A   Mostly Cloudy
1:55 PM 32.0 °F 20.5 °F 21.2 °F 64% 29.93 in 10.0 mi NW 18.4 mph - N/A   Mostly Cloudy
2:15 PM 32.0 °F 19.8 °F 21.2 °F 64% 29.94 in 10.0 mi NW 20.7 mph 27.6 mph N/A   Mostly Cloudy
2:35 PM 30.2 °F 16.5 °F 21.2 °F 69% 29.95 in 10.0 mi WNW 24.2 mph 27.6 mph N/A   Overcast
2:55 PM 32.0 °F 20.5 °F 21.2 °F 64% 29.95 in 10.0 mi NW 18.4 mph 27.6 mph N/A   Overcast
3:15 PM 32.0 °F 19.5 °F 21.2 °F 64% 29.95 in 10.0 mi NW 21.9 mph 28.8 mph N/A   Overcast
3:35 PM 32.0 °F 20.8 °F 21.2 °F 64% 29.96 in 10.0 mi NW 17.3 mph 27.6 mph N/A   Overcast
3:55 PM 32.0 °F 21.6 °F 21.2 °F 64% 29.97 in 10.0 mi NW 15.0 mph - N/A   Overcast
4:15 PM 30.2 °F 20.2 °F 21.2 °F 69% 29.98 in 10.0 mi WNW 12.7 mph 19.6 mph N/A   Overcast
4:35 PM 30.2 °F 18.9 °F 21.2 °F 69% 29.98 in 10.0 mi NW 16.1 mph 20.7 mph N/A   Overcast
4:55 PM 30.2 °F 20.2 °F 21.2 °F 69% 29.99 in 10.0 mi WNW 12.7 mph 23.0 mph N/A   Overcast
5:15 PM 30.2 °F 18.5 °F 21.2 °F 69% 29.99 in 10.0 mi NW 17.3 mph 24.2 mph N/A   Overcast
5:35 PM 30.2 °F 19.8 °F 19.4 °F 64% 29.99 in 10.0 mi NW 13.8 mph 19.6 mph N/A   Overcast
5:55 PM 30.2 °F 21.3 °F 21.2 °F 69% 30.00 in 10.0 mi WNW 10.4 mph - N/A   Overcast
6:15 PM 30.2 °F 21.3 °F 21.2 °F 69% 30.00 in 10.0 mi NW 10.4 mph - N/A   Mostly Cloudy
6:35 PM 30.2 °F 23.4 °F 21.2 °F 69% 30.01 in 10.0 mi NW 6.9 mph - N/A   Scattered Clouds
6:55 PM 28.4 °F 22.2 °F 21.2 °F 74% 30.01 in 10.0 mi NNW 5.8 mph - N/A   Clear
7:15 PM 28.4 °F 22.2 °F 21.2 °F 74% 30.01 in 10.0 mi NNW 5.8 mph - N/A   Clear
7:35 PM 28.4 °F 24.6 °F 21.2 °F 74% 30.01 in 10.0 mi NNW 3.5 mph - N/A   Clear
7:55 PM 28.4 °F 24.6 °F 21.2 °F 74% 30.02 in 10.0 mi NNW 3.5 mph - N/A   Clear
8:15 PM 28.4 °F 24.6 °F 21.2 °F 74% 30.03 in 10.0 mi NW 3.5 mph - N/A   Clear
8:35 PM 28.4 °F - 21.2 °F 74% 30.03 in 10.0 mi Calm Calm - N/A   Clear
8:55 PM 28.4 °F - 23.0 °F 80% 30.04 in 10.0 mi Calm Calm - N/A   Clear
9:15 PM 26.6 °F - 21.2 °F 80% 30.04 in 10.0 mi Calm Calm - N/A   Clear
9:35 PM 26.6 °F 21.2 °F 23.0 °F 86% 30.04 in 10.0 mi SSW 4.6 mph - N/A   Clear
9:55 PM 26.6 °F 22.6 °F 21.2 °F 80% 30.05 in 10.0 mi SSW 3.5 mph - N/A   Clear
10:15 PM 26.6 °F - 21.2 °F 80% 30.05 in 10.0 mi Calm Calm - N/A   Clear
10:35 PM 26.6 °F - 21.2 °F 80% 30.04 in 10.0 mi Calm Calm - N/A   Clear
10:55 PM 26.6 °F 22.6 °F 21.2 °F 80% 30.02 in 10.0 mi ESE 3.5 mph - N/A   Clear
11:15 PM 26.6 °F 21.2 °F 23.0 °F 86% 30.04 in 10.0 mi SSW 4.6 mph - N/A   Clear
11:35 PM 24.8 °F 17.9 °F 21.2 °F 86% 30.04 in 10.0 mi South 5.8 mph - N/A   Clear
11:55 PM 26.6 °F 22.6 °F 23.0 °F 86% 30.04 in 10.0 mi South 3.5 mph - N/A   Clear